ZHANGHENG 1-01 (CSES-1)

Last updated on Mon Oct 20 2025 00:03:35 GMT+0000 (Coordinated Universal Time)

1 43194U 18015C 25292.32760547 .00021690 00000+0 98566-3 0 9994 2 43194 97.6630 88.5622 0017029 42.7085 317.5470 15.20646923428032
UTC large
Height (km)
Speed (km/s)
/
Latitude / Longitude
Inclination (degrees)
Orbital Period (minutes)
Azimuth
Elevation
Range (km)
Doppler Factor

Next 0 passes for location: London (51.5072 / 0.1276)

Sorry there are no passes over London.